Weather History for Paris / Charles De Gaulle, France

Change the Weather History Date:

Sunday, March 3, 2013

  Actual Average Record
Temperature  
Mean Temperature 37 °F -  
Max Temperature 44 °F 53 °F 59 °F (1998)
Min Temperature 30 °F 38 °F 28 °F (2002)
Degree Days  
Heating Degree Days 28    
Moisture  
Dew Point 29 °F    
Average Humidity 74    
Maximum Humidity 87    
Minimum Humidity 57    
Precipitation  
Precipitation 0.00 in - - ()
Sea Level Pressure  
Sea Level Pressure 30.15 in    
Wind  
Wind Speed 7 mph ()    
Max Wind Speed 14 mph    
Max Gust Speed -    
Visibility 3.6 miles    
Events      
Averages and records for this station are not official NWS values.
T = Trace of Precipitation, MM = Missing Value Source: Averaged Metar Reports

Daily Weather History Graph

Daily Weather History Graph

Search for Another Location

Airport:

Trip Planner

Search our weather history database for the weather conditions in past years. The results will help you decide how hot, cold, wet, or windy it might be!

Date:

Astronomy

Mar. 03, 2013 Rise Set
Actual Time 7:27 AM CET 6:36 PM CET
Civil Twilight 6:56 AM CET 7:08 PM CET
Nautical Twilight 6:19 AM CET 7:44 PM CET
Astronomical Twilight 5:42 AM CET 8:21 PM CET
Moon 12:30 AM CET (3/3) 9:57 AM CET (3/3)
Length of Visible Light 12h 11m
Length of Day
11h 08m
Waning Gibbous, 66% of the Moon is Illuminated
Mar 3
Waning Gibbous
Mar 4
Last Quarter
Mar 11
New
Mar 19
First Quarter
Mar 27
Full

Hourly Weather History & Observations

Time (CET) Temp. Windchill Dew Point Humidity Pressure Visibility Wind Dir Wind Speed Gust Speed Precip Events Conditions
12:00 AM 33.8 °F 29.6 °F 26.6 °F 75% 30.24 in 3.7 mi ENE 4.6 mph - N/A   Overcast
12:30 AM 33.8 °F 28.6 °F 26.6 °F 75% 30.24 in 3.7 mi ENE 5.8 mph - N/A   Overcast
1:00 AM 33.8 °F 28.6 °F 26.6 °F 75% 30.24 in 3.1 mi ENE 5.8 mph - N/A   Overcast
1:30 AM 33.8 °F 29.6 °F 26.6 °F 75% 30.24 in 3.1 mi NE 4.6 mph - N/A   Overcast
2:00 AM 33.8 °F 28.6 °F 26.6 °F 75% 30.24 in 3.1 mi NE 5.8 mph - N/A   Overcast
2:30 AM 33.8 °F 28.6 °F 26.6 °F 75% 30.24 in 3.1 mi NE 5.8 mph - N/A   Overcast
3:00 AM 33.8 °F 29.6 °F 26.6 °F 75% 30.21 in 3.1 mi NE 4.6 mph - N/A   Overcast
3:30 AM 33.8 °F 28.6 °F 26.6 °F 75% 30.21 in 3.1 mi ENE 5.8 mph - N/A   Overcast
4:00 AM 33.8 °F 29.6 °F 26.6 °F 75% 30.21 in 3.1 mi NE 4.6 mph - N/A   Overcast
4:30 AM 33.8 °F 29.6 °F 26.6 °F 75% 30.21 in 3.1 mi ENE 4.6 mph - N/A   Overcast
5:00 AM 33.8 °F 29.6 °F 26.6 °F 75% 30.21 in 3.1 mi ENE 4.6 mph - N/A   Mostly Cloudy
5:30 AM 32.0 °F 26.4 °F 26.6 °F 80% 30.18 in 3.1 mi NE 5.8 mph - N/A   Mostly Cloudy
6:00 AM 30.2 °F 24.3 °F 24.8 °F 80% 30.18 in 2.8 mi NE 5.8 mph - N/A   Partly Cloudy
6:30 AM 30.2 °F 23.4 °F 24.8 °F 80% 30.18 in 2.5 mi NE 6.9 mph - N/A   Mist
7:00 AM 30.2 °F 22.6 °F 24.8 °F 80% 30.18 in 2.2 mi ENE 8.1 mph - N/A   Mist
7:30 AM 30.2 °F 22.6 °F 26.6 °F 86% 30.18 in 1.6 mi ENE 8.1 mph - N/A   Mist
8:00 AM 30.2 °F 23.4 °F 26.6 °F 86% 30.18 in 1.6 mi ENE 6.9 mph - N/A   Mist
8:30 AM 30.2 °F 21.9 °F 26.6 °F 86% 30.18 in 2.5 mi ENE 9.2 mph - N/A   Mist
9:00 AM 32.0 °F 23.6 °F 28.4 °F 87% 30.18 in 3.1 mi ENE 10.4 mph - N/A   Mist
9:30 AM 32.0 °F 24.2 °F 28.4 °F 87% 30.18 in 3.1 mi ENE 9.2 mph - N/A   Mist
9:36 AM 33.8 °F 26.4 °F 28.4 °F 81% 30.18 in 3.1 mi ENE 9.2 mph - N/A   Mist
10:00 AM 33.8 °F 25.8 °F 28.4 °F 81% 30.18 in 3.7 mi East 10.4 mph - N/A   Unknown
10:30 AM 35.6 °F 28.0 °F 28.4 °F 75% 30.18 in 3.7 mi ENE 10.4 mph - N/A   Unknown
11:00 AM 35.6 °F 28.6 °F 28.4 °F 75% 30.18 in 3.7 mi ENE 9.2 mph - N/A   Unknown
11:30 AM 37.4 °F 30.8 °F 28.4 °F 70% 30.18 in 3.7 mi ENE 9.2 mph - N/A   Unknown
12:00 PM 39.2 °F 33.6 °F 28.4 °F 65% 30.18 in 4.3 mi East 8.1 mph - N/A   Unknown
12:30 PM 41.0 °F 35.8 °F 30.2 °F 65% 30.18 in 4.3 mi ENE 8.1 mph - N/A   Partly Cloudy
1:00 PM 41.0 °F 35.2 °F 30.2 °F 65% 30.18 in 4.3 mi East 9.2 mph - N/A   Partly Cloudy
1:30 PM 42.8 °F 37.0 °F 30.2 °F 61% 30.15 in 4.3 mi East 10.4 mph - N/A   Partly Cloudy
2:00 PM 42.8 °F 37.0 °F 30.2 °F 61% 30.15 in 5.0 mi East 10.4 mph - N/A   Partly Cloudy
2:30 PM 42.8 °F 37.0 °F 30.2 °F 61% 30.12 in 5.0 mi East 10.4 mph - N/A   Partly Cloudy
3:00 PM 44.6 °F 38.8 °F 30.2 °F 57% 30.12 in 5.0 mi ENE 11.5 mph - N/A   Partly Cloudy
3:30 PM 44.6 °F 38.8 °F 30.2 °F 57% 30.12 in 5.0 mi East 11.5 mph - N/A   Partly Cloudy
4:00 PM 44.6 °F 38.4 °F 32.0 °F 61% 30.09 in 5.0 mi East 12.7 mph - N/A   Partly Cloudy
4:30 PM 44.6 °F 38.4 °F 32.0 °F 61% 30.09 in 5.0 mi East 12.7 mph - N/A   Partly Cloudy
5:00 PM 44.6 °F 38.1 °F 32.0 °F 61% 30.09 in 5.6 mi East 13.8 mph - N/A   Unknown
5:30 PM 42.8 °F 35.8 °F 32.0 °F 66% 30.09 in 5.6 mi East 13.8 mph - N/A   Unknown
6:00 PM 42.8 °F 36.6 °F 32.0 °F 66% 30.09 in 4.3 mi East 11.5 mph - N/A   Unknown
6:30 PM 41.0 °F 34.7 °F 32.0 °F 70% 30.09 in 4.3 mi East 10.4 mph - N/A   Unknown
7:00 PM 41.0 °F 34.7 °F 32.0 °F 70% 30.09 in 3.7 mi East 10.4 mph - N/A   Unknown
7:30 PM 39.2 °F 31.6 °F 32.0 °F 75% 30.09 in 3.1 mi East 12.7 mph - N/A   Mist
8:00 PM 37.4 °F 29.8 °F 32.0 °F 81% 30.09 in 3.1 mi East 11.5 mph - N/A   Mist
8:30 PM 37.4 °F 30.8 °F 30.2 °F 75% 30.09 in 3.1 mi ENE 9.2 mph - N/A   Mist
9:00 PM 35.6 °F 27.5 °F 30.2 °F 81% 30.09 in 3.1 mi East 11.5 mph - N/A   Mist
9:30 PM 35.6 °F 28.6 °F 30.2 °F 81% 30.09 in 3.1 mi East 9.2 mph - N/A   Mist
10:00 PM 35.6 °F 28.6 °F 28.4 °F 75% 30.09 in 3.1 mi East 9.2 mph - N/A   Mist
10:30 PM 35.6 °F 28.6 °F 28.4 °F 75% 30.06 in 3.1 mi East 9.2 mph - N/A   Mist
11:00 PM 33.8 °F 25.8 °F 28.4 °F 81% 30.06 in 3.1 mi ENE 10.4 mph - N/A   Mist
11:30 PM 32.0 °F 24.8 °F 26.6 °F 80% 30.06 in 3.1 mi ENE 8.1 mph - N/A   Mist